Home > Weather > Scheibbs > Past weeks

Flag for Austria Weather for the Past 2 Weeks in Scheibbs, Lower Austria, Austria

Now
54 °F

Cool.


Feels Like: 54 °F
Forecast: 45 / 69 °F
Wind: 1 mph from East

Location: Amstetten

Current Time: May 7, 2016 at 1:36:43 AM

Latest Report: May 7, 2016 at 1:00 AM


Visibility: N/A

Pressure: 30.01 "Hg

Humidity: 73%

Dew Point: 45 °F

Location of ScheibbsLocation

Historic Weather in Scheibbs — Graph

°F

Scheibbs Temperature Yesterday

Maximum temperature yesterday: 71 °F (at 5:00 PM)
Minimum temperature yesterday: 43 °F (at 6:00 AM)
Average temperature yesterday: 57 °F

High & Low Weather Summary for the Past Weeks

 TemperatureHumidityPressure
High71 °F (May 6, 5:00 PM)100% (Apr 28, 12:00 AM)30.36 "Hg (Apr 28, 12:00 AM)
Low29 °F (Apr 29, 6:00 AM)26% (Apr 22, 5:00 PM)29.59 "Hg (Apr 26, 3:00 PM)
Average49 °F77%30.01 "Hg
* Reported Midnight between Apr 21 and Apr 22 — Midnight between May 6 and May 7, Scheibbs, Weather by CustomWeather, © 2016

Note: Actual official high and low records may vary slightly from our data, if they occured in-between our weather recording intervals... More about our weather records

Advertising

Scheibbs Weather History for the Previous 24 Hours

Scroll right to see more
 ConditionsComfort  
Time TempWeatherWind HumidityBarometerVisibility
12:00 AM
Sat, May 7
53 °FCool.1 mph74%30.01 "HgN/A
11:00 PM
Fri, May 6
57 °FCool.2 mph65%30.01 "HgN/A
10:00 PM60 °FRefreshingly cool.3 mph58%30.00 "HgN/A
9:00 PM62 °FRefreshingly cool.3 mph52%29.98 "HgN/A
8:00 PM66 °FMild.3 mph44%29.97 "HgN/A
7:00 PM69 °FMild.5 mph42%29.96 "HgN/A
6:00 PM70 °FMild.5 mph42%29.97 "HgN/A
5:00 PM71 °FMild.5 mph42%29.98 "HgN/A
4:00 PM71 °FMild.6 mph44%30.00 "HgN/A
3:00 PM71 °FMild.5 mph48%30.01 "HgN/A
2:00 PM69 °FMild.5 mph52%30.04 "HgN/A
1:00 PM67 °FMild.5 mph58%30.06 "HgN/A
12:00 PM64 °FMild.5 mph61%30.08 "HgN/A
11:00 AM61 °FCool.3 mph71%30.10 "HgN/A
10:00 AM57 °FCool.3 mph74%30.12 "HgN/A
9:00 AM52 °FCool.2 mph93%30.14 "HgN/A
8:00 AM46 °FCool.2 mph100%30.16 "HgN/A
7:00 AM43 °FQuite cool.No wind100%30.16 "HgN/A
6:00 AM43 °FQuite cool.2 mph100%30.17 "HgN/A
5:00 AM44 °FQuite cool.1 mph100%30.18 "HgN/A
4:00 AM44 °FQuite cool.1 mph100%30.19 "HgN/A
3:00 AM44 °FQuite cool.1 mph100%30.19 "HgN/A
2:00 AM44 °FQuite cool.1 mph100%30.22 "HgN/A
1:00 AM46 °FCool.1 mph100%30.22 "HgN/A
Weather by CustomWeather, © 2016

See weather overviewHow to use our weather pages